[[{"header":{"parameterUnit":"m.s-1","parameterCategory":1,"la1":30.2991,"la2":30.254,"lo1":-89.0895,"lo2":-89.0444,"dy":0.0017,"dx":0.0017,"nx":28,"ny":28,"refTime":"2024-08-04T03:00:00:Z","depth":0,"parameterNumber":2,"parameterNumberName":"U-component_of_WINDS"},"data":[0,0,0,0,0,0,0,0,0,0,0,0,0,0,0,0,0,0,0,0,0,0,0,0,0,0,0,0,0,0,0,0,0,0,0,0,0,0,0,0,0,0,0,0,0,0,0,0,0,0,0,0,0,0,0,0,0,0,-2.6606,-2.6606,0,-2.6647,-2.6647,-2.6647,-2.6581,-2.6579,-2.6577,-2.6574,-2.6615,-2.6618,-2.6621,0,0,0,0,0,0,0,0,0,0,0,0,0,-2.6468,-2.6471,-2.6606,-2.6606,-2.6607,-2.6646,-2.6647,-2.6648,-2.6581,-2.6579,-2.6576,-2.6573,-2.6614,-2.6618,-2.6622,0,0,0,0,0,0,0,0,0,0,0,0,0,-2.652,-2.6472,-2.6606,-2.6579,-2.6577,-2.6646,-2.6647,-2.6648,-2.6582,-2.6579,-2.6575,-2.6572,-2.6613,-2.6618,-2.6622,-2.672,0,0,-2.6637,-2.6639,0,0,0,0,0,0,0,0,-2.6517,-2.6525,-2.6582,-2.6581,-2.6578,-2.6605,-2.6613,-2.6672,-2.6583,-2.658,-2.6574,-2.657,-2.6615,-2.6619,-2.6634,-2.6722,-2.6724,-2.6637,-2.664,-2.6642,-2.6644,0,0,0,0,0,0,0,-2.6514,-2.6523,-2.6622,-2.6583,-2.6581,-2.6564,-2.6567,-2.6624,-2.6616,-2.658,-2.6575,-2.6581,-2.6613,-2.663,-2.6635,-2.6724,-2.6637,-2.6641,-2.6644,-2.6646,-2.6892,-2.6895,0,0,0,0,0,0,-2.6514,-2.6521,-2.662,-2.6623,-2.6539,-2.6569,-2.6573,-2.66,-2.6615,-2.6614,-2.6584,-2.6578,-2.6623,-2.6629,-2.6636,-2.6749,-2.6642,-2.6647,-2.665,-2.6888,-2.6893,-2.6896,0,0,0,0,0,0,-2.6511,-2.6523,-2.6619,-2.6571,-2.6581,-2.6575,-2.6606,-2.6603,-2.6619,-2.6618,-2.6616,-2.6603,-2.6621,-2.6629,-2.6699,-2.675,-2.6649,-2.6653,-2.6884,-2.6889,-2.6895,-2.6978,0,0,0,0,0,0,-2.6508,-2.6523,-2.6561,-2.6572,-2.6584,-2.6683,-2.6609,-2.6606,-2.6628,-2.662,-2.6635,-2.6634,-2.6619,-2.6692,-2.6704,-2.6755,-2.6657,-2.6879,-2.6886,-2.6893,-2.6971,-2.6986,-2.6999,0,0,0,0,0,-2.6503,-2.6583,-2.6563,-2.6575,-2.6632,-2.6686,-2.6692,-2.6673,-2.6632,-2.6669,-2.6668,-2.6634,-2.6743,-2.67,-2.6712,-2.6765,-2.6876,-2.6884,-2.6892,-2.6965,-2.6983,-2.6999,0,0,0,0,0,0,-2.6578,-2.6584,-2.6562,-2.6648,-2.6667,-2.6674,-2.6721,-2.6694,-2.6724,-2.6716,-2.669,-2.6694,-2.6769,-2.6774,-2.6727,-2.686,-2.6802,-2.6813,-2.6853,-2.687,-2.6884,-2.6881,-2.6661,0,0,0,0,0,-2.6604,-2.6648,-2.6651,-2.6727,-2.6738,-2.6728,-2.6751,-2.6734,-2.6752,-2.676,-2.6764,-2.6782,-2.682,-2.6846,-2.6881,-2.6972,-2.6973,-2.7014,-2.7028,-2.704,-2.7049,-2.7095,-2.7113,-2.6923,-2.6923,-2.6923,0,0,-2.666,-2.6669,-2.6698,-2.6742,-2.6755,-2.68,-2.6735,-2.6786,-2.6818,-2.6767,-2.6833,-2.6837,-2.6856,-2.6936,-2.6972,-2.6943,-2.7102,-2.705,-2.7059,-2.7062,-2.7105,-2.7123,-2.7139,-2.6929,-2.6928,-2.6927,0,0,-2.6783,-2.6795,-2.6858,-2.6872,-2.6892,-2.6884,-2.69,-2.6911,-2.6911,-2.6977,-2.6939,-2.6977,-2.7044,-2.7058,-2.7075,-2.7202,-2.717,-2.7214,-2.7286,-2.7332,-2.7346,-2.736,-2.7403,-2.7419,-2.7224,-2.7224,-2.7224,0,-2.6849,-2.6916,-2.6894,-2.6947,-2.6967,-2.6923,-2.6986,-2.7,-2.703,-2.7044,-2.7012,-2.7093,-2.7103,-2.7185,-2.7216,-2.7231,-2.7246,-2.7212,-2.7346,-2.7359,-2.7371,-2.7412,-2.7429,-2.7229,-2.7229,-2.7228,-2.7228,0,-2.6995,-2.7042,-2.7091,-2.712,-2.7146,-2.7204,-2.719,-2.7218,-2.7199,-2.7195,-2.7261,-2.7271,-2.7307,-2.7325,-2.7308,-2.7404,-2.7386,-2.7351,-2.7292,-2.7394,-2.7432,-2.7448,-2.7236,-2.7235,-2.7233,-2.7232,0,0,-2.7167,-2.7183,-2.7201,-2.7213,-2.7231,-2.7266,-2.7321,-2.7356,-2.738,-2.7402,-2.7446,-2.7503,-2.747,-2.7488,-2.7472,-2.7512,-2.7609,-2.7471,-2.7471,-2.7495,-2.7714,-2.7739,-2.7758,-2.7589,-2.7592,-2.7594,-2.7712,0,-2.7288,-2.7383,-2.7364,-2.7457,-2.7499,-2.7457,-2.7505,-2.752,-2.7518,-2.7552,-2.7549,-2.7589,-2.7543,-2.7554,-2.7592,-2.7589,-2.7653,-2.7581,-2.7629,-2.7631,-2.7623,-2.7778,-2.7805,-2.7915,-2.7727,-2.7729,-2.7731,0,-2.7442,-2.7469,-2.7566,-2.7575,-2.7592,-2.7635,-2.7664,-2.7698,-2.7714,-2.7709,-2.7729,-2.7705,-2.7758,-2.77,-2.7773,-2.7724,-2.7743,-2.7745,-2.7748,-2.7751,-2.7686,-2.7782,-2.795,-2.7966,-2.7755,-2.7753,-2.7751,0,-2.7554,-2.7615,-2.768,-2.7692,-2.7706,-2.7736,-2.7743,-2.7756,-2.7778,-2.7803,-2.7816,-2.7848,-2.7865,-2.7889,-2.7873,-2.7833,-2.7948,-2.7889,-2.7944,-2.7944,-2.7969,-2.7967,-2.814,-2.7984,-2.7984,-2.7983,-2.7983,0,-2.769,-2.7751,-2.7731,-2.7771,-2.7837,-2.7814,-2.788,-2.7882,-2.7893,-2.7932,-2.7898,-2.7935,-2.7912,-2.7947,-2.7935,-2.7996,-2.8004,-2.8001,-2.7996,-2.8003,-2.8003,-2.8013,-2.8004,-2.7988,-2.7987,-2.7986,-2.7985,0,-2.7827,-2.7816,-2.7884,-2.7891,-2.7894,-2.7942,-2.7947,-2.7983,-2.7978,-2.8027,-2.8037,-2.8029,-2.8068,-2.8055,-2.8097,-2.8089,-2.8165,-2.8152,-2.8159,-2.8155,-2.821,-2.8204,-2.8394,-2.8417,-2.8248,-2.825,-2.8251,0,-2.7913,-2.7959,-2.797,-2.7993,-2.8002,-2.8041,-2.8062,-2.8042,-2.8065,-2.8086,-2.812,-2.8156,-2.8183,-2.8248,-2.8245,-2.8276,-2.8262,-2.8326,-2.8267,-2.8271,-2.8261,-2.8257,-2.8261,-2.8338,-2.834,-2.8341,-2.8343,0,-2.8068,-2.806,-2.8092,-2.8122,-2.8148,-2.8171,-2.8191,-2.8212,-2.8192,-2.822,-2.826,-2.8281,-2.8323,-2.8359,-2.8387,-2.8393,-2.8364,-2.8362,-2.8376,-2.8382,-2.8383,-2.8381,-2.819,-2.8357,-2.8356,-2.8355,-2.8354,-2.8353,-2.818,-2.8217,-2.8231,-2.8267,-2.828,-2.8298,-2.8332,-2.8331,-2.8364,-2.8396,-2.8382,-2.8427,-2.844,-2.8475,-2.8485,-2.8519,-2.8494,-2.8515,-2.852,-2.8525,-2.8531,-2.8379,-2.8525,-2.8524,-2.8524,-2.8523,-2.8523,0,-2.833,-2.8337,-2.837,-2.8398,-2.8427,-2.8398,-2.8418,-2.8443,-2.8483,-2.8498,-2.8525,-2.857,-2.8604,-2.8603,-2.8635,-2.8662,-2.8649,-2.8671,-2.8667,-2.8669,-2.8553,-2.8536,-2.868,-2.868,-2.868,-2.868,-2.868,-2.868,-2.8412,-2.8473,-2.8466,-2.8533,-2.8538,-2.8582,-2.8595,-2.8612,-2.8623,-2.8674,-2.8702,-2.8702,-2.871,-2.8741,-2.8771,-2.877,-2.8782,-2.8808,-2.8802,-2.8693,-2.8677,-2.8662,-2.8647,-2.8811,-2.8811,-2.8914,-2.8915,-2.8916]},{"header":{"parameterUnit":"m.s-1","parameterCategory":1,"la1":30.2991,"la2":30.254,"lo1":-89.0895,"lo2":-89.0444,"dy":0.0017,"dx":0.0017,"nx":28,"ny":28,"refTime":"2024-08-04T03:00:00:Z","depth":0,"parameterNumber":3,"parameterNumberName":"V-component_of_WINDS"},"data":[0,0,0,0,0,0,0,0,0,0,0,0,0,0,0,0,0,0,0,0,0,0,0,0,0,0,0,0,0,0,0,0,0,0,0,0,0,0,0,0,0,0,0,0,0,0,0,0,0,0,0,0,0,0,0,0,0,0,-1.6097,-1.6097,0,-1.61,-1.61,-1.61,-1.6083,-1.6083,-1.6082,-1.6082,-1.6085,-1.6085,-1.6086,0,0,0,0,0,0,0,0,0,0,0,0,0,-1.6076,-1.6077,-1.6097,-1.6097,-1.6097,-1.61,-1.61,-1.61,-1.6083,-1.6083,-1.6082,-1.6082,-1.6085,-1.6085,-1.6086,0,0,0,0,0,0,0,0,0,0,0,0,0,-1.6083,-1.6077,-1.6097,-1.6089,-1.6089,-1.61,-1.61,-1.61,-1.6084,-1.6083,-1.6082,-1.6081,-1.6085,-1.6085,-1.6086,-1.6105,0,0,-1.6089,-1.6089,0,0,0,0,0,0,0,0,-1.6083,-1.6084,-1.609,-1.609,-1.6089,-1.6091,-1.6094,-1.6102,-1.6084,-1.6085,-1.6082,-1.6081,-1.6087,-1.6088,-1.609,-1.6105,-1.6106,-1.6089,-1.6089,-1.6089,-1.609,0,0,0,0,0,0,0,-1.6082,-1.6084,-1.6098,-1.6091,-1.609,-1.6085,-1.6085,-1.6095,-1.609,-1.6085,-1.6084,-1.6085,-1.6087,-1.6089,-1.609,-1.6106,-1.6089,-1.6089,-1.609,-1.609,-1.6136,-1.6136,0,0,0,0,0,0,-1.6083,-1.6083,-1.6098,-1.6098,-1.6084,-1.6086,-1.6086,-1.6091,-1.609,-1.609,-1.6085,-1.6084,-1.6088,-1.6089,-1.609,-1.6112,-1.6089,-1.609,-1.6091,-1.6135,-1.6136,-1.6137,0,0,0,0,0,0,-1.6083,-1.6084,-1.6098,-1.6091,-1.6092,-1.6087,-1.6092,-1.6091,-1.6094,-1.609,-1.6089,-1.6089,-1.6088,-1.6089,-1.6101,-1.6112,-1.6091,-1.6091,-1.6134,-1.6135,-1.6136,-1.6156,0,0,0,0,0,0,-1.6082,-1.6084,-1.6092,-1.6091,-1.6092,-1.611,-1.6093,-1.6092,-1.6095,-1.6093,-1.6093,-1.6092,-1.6087,-1.61,-1.6102,-1.6112,-1.6092,-1.6133,-1.6134,-1.6136,-1.6154,-1.6158,-1.616,0,0,0,0,0,-1.6081,-1.6098,-1.6093,-1.6094,-1.6102,-1.6111,-1.6111,-1.6105,-1.6096,-1.6103,-1.6101,-1.6092,-1.611,-1.6102,-1.6104,-1.6114,-1.6132,-1.6134,-1.6136,-1.6153,-1.6157,-1.616,0,0,0,0,0,0,-1.6101,-1.6098,-1.6092,-1.6108,-1.611,-1.6108,-1.6117,-1.611,-1.6114,-1.6112,-1.6104,-1.6104,-1.6118,-1.6117,-1.6108,-1.6132,-1.612,-1.6122,-1.6132,-1.6136,-1.6139,-1.6139,-1.6092,0,0,0,0,0,-1.6107,-1.6114,-1.6111,-1.6126,-1.6127,-1.6122,-1.6125,-1.612,-1.6121,-1.6122,-1.612,-1.6122,-1.6127,-1.6132,-1.6137,-1.6154,-1.6153,-1.6162,-1.6165,-1.6168,-1.617,-1.6178,-1.6181,-1.6142,-1.6142,-1.6142,0,0,-1.612,-1.6119,-1.6125,-1.613,-1.613,-1.6138,-1.6123,-1.6131,-1.6137,-1.6123,-1.6135,-1.6134,-1.6135,-1.6149,-1.6156,-1.6149,-1.618,-1.617,-1.6172,-1.6172,-1.618,-1.6184,-1.6187,-1.6143,-1.6143,-1.6143,0,0,-1.6148,-1.6148,-1.616,-1.616,-1.6161,-1.6157,-1.616,-1.6159,-1.6157,-1.6168,-1.6158,-1.6164,-1.6175,-1.6175,-1.6177,-1.6203,-1.6195,-1.6205,-1.6221,-1.6229,-1.6232,-1.6235,-1.6243,-1.6247,-1.6207,-1.6207,-1.6207,0,-1.6164,-1.6175,-1.6167,-1.6176,-1.6179,-1.6166,-1.6178,-1.6179,-1.6181,-1.6183,-1.6175,-1.6187,-1.6187,-1.6201,-1.6207,-1.6209,-1.6212,-1.6205,-1.6232,-1.6235,-1.6237,-1.6245,-1.6249,-1.6208,-1.6208,-1.6208,-1.6208,0,-1.6194,-1.6202,-1.6212,-1.6214,-1.6217,-1.6227,-1.6221,-1.6225,-1.6219,-1.6216,-1.6227,-1.6226,-1.623,-1.6233,-1.6227,-1.6246,-1.6242,-1.6233,-1.6221,-1.6242,-1.625,-1.6253,-1.621,-1.6209,-1.6209,-1.6209,0,0,-1.6236,-1.6232,-1.6236,-1.6236,-1.6235,-1.6241,-1.625,-1.6254,-1.6257,-1.6259,-1.6266,-1.6274,-1.6266,-1.6268,-1.6262,-1.6269,-1.6289,-1.626,-1.626,-1.6265,-1.6309,-1.6315,-1.6319,-1.6284,-1.6284,-1.6285,-1.6308,0,-1.6262,-1.6278,-1.6271,-1.6287,-1.6294,-1.6281,-1.6289,-1.6289,-1.6286,-1.6291,-1.6287,-1.6293,-1.6282,-1.6282,-1.6289,-1.6285,-1.6298,-1.6283,-1.629,-1.629,-1.6291,-1.6323,-1.633,-1.6353,-1.6311,-1.6312,-1.6312,0,-1.6296,-1.6298,-1.6315,-1.6312,-1.6314,-1.6322,-1.6324,-1.6329,-1.6328,-1.6325,-1.6326,-1.6319,-1.6327,-1.6314,-1.6325,-1.6315,-1.6317,-1.6316,-1.6317,-1.6317,-1.6303,-1.6325,-1.636,-1.6363,-1.6317,-1.6317,-1.6316,0,-1.6324,-1.6331,-1.6342,-1.6343,-1.6339,-1.6344,-1.6343,-1.6342,-1.6344,-1.6346,-1.6347,-1.635,-1.6351,-1.6354,-1.6347,-1.6338,-1.6358,-1.6345,-1.6356,-1.6356,-1.6361,-1.6361,-1.6398,-1.6362,-1.6362,-1.6362,-1.6362,0,-1.6354,-1.6365,-1.6354,-1.6361,-1.6373,-1.6363,-1.6375,-1.6372,-1.6371,-1.6376,-1.6366,-1.6371,-1.6361,-1.6366,-1.636,-1.637,-1.6371,-1.6368,-1.6367,-1.6369,-1.637,-1.6371,-1.6369,-1.6363,-1.6363,-1.6363,-1.6363,0,-1.6388,-1.6381,-1.6392,-1.6387,-1.6386,-1.6395,-1.6391,-1.6396,-1.6392,-1.6399,-1.64,-1.6393,-1.6398,-1.639,-1.6394,-1.639,-1.6404,-1.64,-1.6404,-1.6403,-1.6414,-1.6413,-1.6453,-1.6458,-1.6419,-1.642,-1.642,0,-1.6408,-1.6416,-1.6412,-1.6415,-1.6414,-1.6419,-1.6421,-1.6411,-1.6414,-1.6413,-1.6418,-1.6422,-1.6424,-1.6432,-1.6427,-1.6429,-1.6425,-1.6439,-1.6426,-1.6428,-1.6425,-1.6425,-1.6425,-1.6442,-1.6442,-1.6443,-1.6443,0,-1.6445,-1.644,-1.6444,-1.6445,-1.6448,-1.6449,-1.6449,-1.6452,-1.6442,-1.6445,-1.6449,-1.6451,-1.6454,-1.6457,-1.6459,-1.6457,-1.6448,-1.6447,-1.645,-1.6453,-1.6455,-1.6454,-1.6411,-1.6446,-1.6446,-1.6446,-1.6446,-1.6445,-1.6472,-1.6478,-1.6476,-1.6479,-1.6478,-1.6478,-1.6483,-1.6478,-1.6482,-1.6483,-1.6478,-1.6483,-1.6481,-1.6481,-1.648,-1.6484,-1.6478,-1.6482,-1.6483,-1.6484,-1.6486,-1.6454,-1.6484,-1.6484,-1.6484,-1.6484,-1.6484,0,-1.6508,-1.6505,-1.6508,-1.6508,-1.6511,-1.6502,-1.6501,-1.6504,-1.6509,-1.6507,-1.6509,-1.6514,-1.6516,-1.6511,-1.6513,-1.6517,-1.6513,-1.6518,-1.6518,-1.6517,-1.6491,-1.6489,-1.6521,-1.6521,-1.6521,-1.6521,-1.6521,-1.6521,-1.6526,-1.6536,-1.6531,-1.654,-1.6537,-1.6542,-1.6542,-1.6542,-1.654,-1.6545,-1.6548,-1.6544,-1.6541,-1.6542,-1.6544,-1.6542,-1.6543,-1.655,-1.6547,-1.6523,-1.6519,-1.6516,-1.6513,-1.655,-1.655,-1.6572,-1.6572,-1.6572]}]]